Date String (YYYY-MM-DD hh:mm:ss) UTC,Instrument flags,absolute air pressure of the measurement (hPa),sample flow rate (lpm),inlet stack bypass flow (lpm),air temperature of the measurement (°C),ambient temperature measured by the external sensor (°C),aerosol sample conditioner tube jacket temperature (°C),OPC LED temperature (°C),internal box temperature (°C),relative humidity of the measurement (%),span deviation,mass concentration of particles derived from Lorenz-Mie calculation of OPC scattering (μg/m³),mass concentration of particles derived from Lorenz-Mie calculation of OPC scattering (μg/m³),mass concentration of particles derived from Lorenz-Mie calculation of OPC scattering (μg/m³)
DateTimeUTC,F1_M11,P_M11,Q1_M11,Q2_M11,T1_M11,T2_M11,T3_M11,T4_M11,T5_M11,U1_M11,ZSPAN_M11,X0_M11,X2_M11,X1_M11
2023-09-04 03:00:00,SystemResetWarning,0829.4,4.99,000.00,028.9,025.3,000.0,037.2,029.5,32.0,0000.0,0002.53,0001.67,0001.33
2023-09-04 03:01:00,SystemResetWarning,0829.4,5.00,000.00,028.9,025.6,000.0,037.2,029.6,32.0,0000.0,0002.40,0001.66,0001.32
2023-09-04 03:02:00,SystemResetWarning,0829.4,5.01,000.00,028.9,025.9,000.0,037.2,029.7,31.9,0000.0,0002.43,0001.68,0001.33
2023-09-04 03:03:00,SystemResetWarning,0829.4,5.00,000.00,028.9,026.2,000.0,037.2,029.8,31.9,0000.0,0002.40,0001.64,0001.31
2023-09-04 03:04:00,SystemResetWarning,0829.4,5.01,000.00,028.9,026.5,000.0,037.2,029.9,32.1,0000.0,0002.46,0001.65,0001.31
2023-09-04 03:05:00,SystemResetWarning,0829.5,5.00,000.00,028.9,026.7,000.0,037.2,029.9,32.1,0000.0,0002.56,0001.68,0001.31
2023-09-04 03:06:00,SystemResetWarning,0829.5,5.01,000.00,028.9,026.8,000.0,037.2,030.0,32.1,0000.0,0002.68,0001.71,0001.31
2023-09-04 03:07:00,SystemResetWarning,0829.4,4.99,000.00,028.9,027.0,000.0,037.2,030.0,32.3,0000.0,0002.80,0001.71,0001.30
2023-09-04 03:08:00,SystemResetWarning,0829.4,5.00,000.00,029.0,027.1,000.0,037.2,030.1,32.7,0000.0,0002.84,0001.72,0001.29
2023-09-04 03:09:00,SystemResetWarning,0829.3,5.00,000.00,029.0,027.2,000.0,037.2,030.1,33.2,0000.0,0002.90,0001.74,0001.30
2023-09-04 03:10:00,SystemResetWarning,0829.2,4.99,000.00,029.0,027.1,000.0,037.2,030.1,33.2,0000.0,0002.87,0001.73,0001.30
2023-09-04 03:11:00,SystemResetWarning,0829.0,4.98,000.00,028.9,025.8,000.0,037.1,029.7,33.4,0000.0,0003.01,0001.77,0001.32
2023-09-04 03:12:00,SystemResetWarning,0828.9,5.01,000.00,028.8,025.0,000.0,037.0,029.6,33.7,0000.0,0003.01,0001.79,0001.36
2023-09-04 03:13:00,SystemResetWarning,0828.7,5.01,000.00,028.7,024.9,000.0,037.0,029.4,34.2,0000.0,0003.01,0001.79,0001.39
2023-09-04 03:14:00,SystemResetWarning,0828.6,5.00,000.00,028.6,025.2,000.0,037.0,029.4,34.4,0000.0,0003.12,0001.83,0001.41
2023-09-04 03:15:00,SystemResetWarning,0828.7,5.00,000.00,028.6,025.5,000.0,037.0,029.5,34.1,0000.0,0003.37,0001.86,0001.42
2023-09-04 03:16:00,SystemResetWarning,0828.8,5.00,000.00,028.6,025.8,000.0,037.0,029.7,34.2,0000.0,0003.36,0001.87,0001.45
2023-09-04 03:17:00,SystemResetWarning,0828.9,5.00,000.00,028.6,026.2,000.0,037.0,029.8,34.6,0000.0,0003.34,0001.88,0001.48
2023-09-04 03:18:00,SystemResetWarning,0829.0,5.00,000.00,028.6,026.4,000.0,037.0,029.8,34.8,0000.0,0003.41,0001.91,0001.51
2023-09-04 03:19:00,SystemResetWarning,0829.0,5.00,000.00,028.6,026.7,000.0,037.0,029.9,34.8,0000.0,0003.46,0001.95,0001.54
2023-09-04 03:20:00,SystemResetWarning,0829.0,4.98,000.00,028.7,026.8,000.0,037.0,029.9,34.8,0000.0,0003.48,0001.97,0001.56
2023-09-04 03:21:00,SystemResetWarning,0829.0,5.00,000.00,028.7,027.0,000.0,037.0,030.0,34.5,0000.0,0003.54,0002.02,0001.58
2023-09-04 03:22:00,SystemResetWarning,0829.0,5.01,000.00,028.8,027.1,000.0,037.0,030.1,34.7,0000.0,0003.67,0002.08,0001.59
2023-09-04 03:23:00,SystemResetWarning,0828.9,5.01,000.00,028.8,027.2,000.0,037.0,030.1,34.6,0000.0,0003.82,0002.11,0001.58
2023-09-04 03:24:00,SystemResetWarning,0828.9,4.97,000.00,028.8,026.2,000.0,037.0,029.8,35.2,0000.0,0003.84,0002.10,0001.58
2023-09-04 03:25:00,SystemResetWarning,0828.8,5.03,000.00,028.8,025.1,000.0,036.9,029.6,37.5,0000.0,0003.79,0002.12,0001.59
2023-09-04 03:26:00,SystemResetWarning,0828.8,5.00,000.00,029.0,024.8,000.0,036.9,029.5,37.1,0000.0,0003.47,0002.11,0001.60
2023-09-04 03:27:00,SystemResetWarning,0828.8,4.99,000.00,029.2,025.0,000.0,036.9,029.6,35.9,0000.0,0003.47,0002.09,0001.60
2023-09-04 03:28:00,SystemResetWarning,0828.8,5.03,000.00,029.6,025.3,000.0,036.9,029.9,34.8,0000.0,0003.52,0002.09,0001.59
2023-09-04 03:29:00,SystemResetWarning,0828.7,4.96,000.00,029.9,025.7,000.0,037.0,030.0,35.0,0000.0,0003.34,0002.07,0001.59
2023-09-04 03:30:00,SystemResetWarning,0828.8,5.04,000.00,030.1,026.0,000.0,037.1,030.1,33.7,0000.0,0003.35,0002.08,0001.59
2023-09-04 03:31:00,SystemResetWarning,0828.8,4.97,000.00,030.3,026.2,000.0,037.2,030.2,33.1,0000.0,0003.34,0002.08,0001.60
2023-09-04 03:32:00,SystemResetWarning,0828.7,5.02,000.00,030.4,026.5,000.0,037.4,030.2,33.4,0000.0,0003.29,0002.07,0001.60
2023-09-04 03:33:00,SystemResetWarning,0828.7,4.99,000.00,030.5,026.7,000.0,037.5,030.2,32.8,0000.0,0003.09,0002.03,0001.61
2023-09-04 03:34:00,SystemResetWarning,0828.7,5.00,000.00,030.5,026.9,000.0,037.6,030.3,32.6,0000.0,0003.00,0002.02,0001.64
2023-09-04 03:35:00,SystemResetWarning,0828.7,5.00,000.00,030.6,027.0,000.0,037.7,030.4,33.0,0000.0,0002.94,0002.04,0001.66
2023-09-04 03:36:00,SystemResetWarning,0828.7,5.00,000.00,030.6,027.1,000.0,037.9,030.4,33.5,0000.0,0002.86,0002.04,0001.69
2023-09-04 03:37:00,SystemResetWarning,0828.7,5.00,000.00,030.6,027.2,000.0,038.0,030.5,33.7,0000.0,0002.91,0002.07,0001.71
2023-09-04 03:38:00,SystemResetWarning,0828.7,4.99,000.00,030.6,027.3,000.0,038.0,030.5,34.1,0000.0,0003.12,0002.13,0001.73
2023-09-04 03:39:00,SystemResetWarning,0828.7,4.98,000.00,030.6,026.2,000.0,038.0,030.2,34.1,0000.0,0003.26,0002.20,0001.75
2023-09-04 03:40:00,SystemResetWarning,0828.7,5.01,000.00,030.4,025.1,000.0,038.0,029.8,34.3,0000.0,0003.35,0002.26,0001.79
2023-09-04 03:41:00,SystemResetWarning,0828.6,5.01,000.00,030.3,024.8,000.0,038.0,029.7,34.1,0000.0,0003.64,0002.35,0001.82
2023-09-04 03:42:00,SystemResetWarning,0828.7,5.00,000.00,030.1,025.0,000.0,038.0,029.7,34.2,0000.0,0003.70,0002.39,0001.85
2023-09-04 03:43:00,SystemResetWarning,0828.6,5.00,000.00,030.0,025.4,000.0,038.0,029.8,34.4,0000.0,0003.72,0002.41,0001.89
2023-09-04 03:44:00,SystemResetWarning,0828.7,5.00,000.00,030.0,025.7,000.0,038.0,029.9,34.4,0000.0,0003.68,0002.40,0001.91
2023-09-04 03:45:00,SystemResetWarning,0828.7,4.99,000.00,030.0,026.0,000.0,038.0,030.0,34.5,0000.0,0003.76,0002.45,0001.92
2023-09-04 03:46:00,SystemResetWarning,0828.6,5.00,000.00,029.9,026.3,000.0,038.0,030.1,34.0,0000.0,0003.92,0002.49,0001.92
2023-09-04 03:47:00,SystemResetWarning,0828.7,5.01,000.00,029.9,026.5,000.0,038.0,030.1,32.9,0000.0,0004.06,0002.50,0001.91
2023-09-04 03:48:00,SystemResetWarning,0828.7,5.00,000.00,029.9,026.7,000.0,038.0,030.2,33.1,0000.0,0004.04,0002.50,0001.91
2023-09-04 03:49:00,SystemResetWarning,0828.7,5.00,000.00,029.9,026.9,000.0,038.0,030.2,32.6,0000.0,0003.94,0002.50,0001.91
2023-09-04 03:50:00,SystemResetWarning,0828.7,5.00,000.00,029.9,027.0,000.0,038.0,030.3,32.8,0000.0,0003.84,0002.49,0001.91
2023-09-04 03:51:00,SystemResetWarning,0828.6,5.00,000.00,029.9,027.1,000.0,038.0,030.3,33.7,0000.0,0003.79,0002.47,0001.91
2023-09-04 03:52:00,SystemResetWarning,0828.6,5.00,000.00,029.9,027.3,000.0,038.0,030.3,34.5,0000.0,0003.52,0002.38,0001.90
2023-09-04 03:53:00,SystemResetWarning,0828.6,5.00,000.00,029.8,027.2,000.0,038.0,030.4,33.6,0000.0,0003.92,0002.41,0001.89
2023-09-04 03:54:00,SystemResetWarning,0828.5,4.97,000.00,029.8,026.1,000.0,037.9,030.0,34.8,0000.0,0004.84,0002.42,0001.88
2023-09-04 03:55:00,SystemResetWarning,0828.6,5.05,000.00,029.7,025.0,000.0,037.8,029.8,35.0,0000.0,0004.91,0002.44,0001.87
2023-09-04 03:56:00,SystemResetWarning,0828.6,4.96,000.00,029.7,024.7,000.0,037.7,029.7,34.5,0000.0,0005.02,0002.43,0001.87
2023-09-04 03:57:00,SystemResetWarning,0828.6,5.03,000.00,029.6,025.0,000.0,037.7,029.7,33.9,0000.0,0005.00,0002.40,0001.87
2023-09-04 03:58:00,SystemResetWarning,0828.7,5.00,000.00,029.5,025.3,000.0,037.7,029.8,33.4,0000.0,0004.85,0002.39,0001.87
2023-09-04 03:59:00,SystemResetWarning,0828.6,5.00,000.00,029.5,025.7,000.0,037.7,029.9,32.9,0000.0,0004.81,0002.38,0001.88
